Back to catalog

STARLINK-3665

AliveCommunicationsVLEO
NORAD 52098·PAYLOAD·🇺🇸 United States

Launched Mar 19, 2022 from Cape Canaveral Space Force Station

Loading…

Next Passes (next 24 hours)

TLE

FreshSource: CelesTrak SupGP

Epoch: Sep 14, 2026, 21:03 UTC

1 52098C 22029L   26257.87756944 -.00014163  00000+0 -41860-3 0  2576
2 52098  53.1582 308.3445 0001170  90.2052 223.0296 15.34387025    17

Track STARLINK-3665 in real time with AllMySat

Download on the App Store